Location: Lomond
(50.3500°N, 112.6333°W)
Time: 05:38:47
(UTC+00:00)

SO-50 - Visible Passes

Search period start: 05 December 2023 00:00
Search period end: 15 December 2023 00:00
Orbit: 601 x 670 km, 64.6° (Epoch: 04 December)

Date Brightness Start Highest point End Pass type
(mag) Time Alt. Az. Time Alt. Az. Time Alt. Az.
05 Dec ? 11:26:32 17° NE 11:26:32 17° NE 11:27:35 10° NE visible
05 Dec ? 13:04:02 27° NNW 13:04:02 27° NNW 13:07:39 10° NNE visible
06 Dec ? 11:48:47 19° NNE 11:48:47 19° NNE 11:50:09 10° NE visible
06 Dec ? 13:26:16 19° NNW 13:26:44 19° NNW 13:30:06 10° NNE visible
07 Dec ? 12:10:58 20° NNE 12:10:58 20° NNE 12:12:36 10° NNE visible
07 Dec ? 13:48:26 14° NW 13:49:55 15° NNW 13:52:42 10° NNE visible
08 Dec ? 12:33:04 19° N 12:33:04 19° N 12:35:01 10° NNE visible
08 Dec ? 14:10:43 10° NW 14:13:10 14° N 14:15:36 10° NNE visible
09 Dec ? 12:55:08 17° N 12:55:08 17° N 12:57:30 10° NNE visible
09 Dec ? 14:33:53 10° NNW 14:36:26 14° N 14:38:57 10° NE visible
10 Dec ? 11:39:42 11° NNE 11:39:42 11° NNE 11:39:56 10° NNE visible
10 Dec ? 13:17:10 14° NNW 13:17:35 15° N 13:20:10 10° NNE visible
11 Dec ? 12:01:42 13° NNE 12:01:42 13° NNE 12:02:21 10° NNE visible
11 Dec ? 13:39:10 12° NNW 13:40:49 14° N 13:43:14 10° NNE visible
12 Dec ? 12:23:41 14° N 12:23:41 14° N 12:24:52 10° NNE visible
12 Dec ? 14:01:22 10° NNW 14:04:04 15° N 14:06:43 10° NE visible
13 Dec ? 12:45:39 14° N 12:45:39 14° N 12:47:39 10° NNE visible
13 Dec ? 14:23:58 10° NNW 14:27:13 19° NNE 14:30:25 10° ENE visible
14 Dec ? 13:07:36 14° N 13:08:26 14° N 13:10:53 10° NE visible
